CAPE
0 0 0 0 0 0 0 0 0 0 0 0 0 0 17 70 110 133 105 4 0 0 0 0 0 0 0 0 0 0 0 0 0 0 0 0 0 0 0 0 0 0 0 0
0 0 0 0 0 0 0 0 0 0 0 0 0 3 29 70 145 127 75 0 0 0 0 0 0 0 0 0 0 0 0 0 0 0 0 0 0 0 0 0 0 0 0 0
0 0 0 0 0 0 0 0 0 0 0 0 0 0 26 36 36 49 0 0 0 0 0 0 0 0 0 0 0 0 0 0 0 0 0 0 0 0 0 0 0 0 0 0
0 0 0 0 0 0 0 0 0 1 1 1 0 0 35 37 24 0 0 0 0 0 0 0 0 0 0 0 0 0 0 0 0 0 0 0 0 0 0 0 0 0 0 0
0 0 0 0 0 0 0 0 0 0 0 0 0 0 0 0 0 0 0 0 0 0 0 0 0 0 0 0 0 0 0 0 0 0 0 0 0 0 0 0 0 0 0 0
0 0 0 0 0 0 0 0 0 0 0 0 0 0 0 0 0 0 0 0 0 0 0 0 0 0 0 0 0 0 0 0 0 0 0 0 0 0 0 0 0 0 0 0
0 0 0 0 0 0 0 0 0 0 0 0 0 0 0 0 0 0 0 0 0 0 0 0 0 0 0 0 0 0 0 0 0 0 0 0 0 0 0 0 0 0 0 0
0 0 0 0 0 0 0 0 0 0 0 0 0 0 0 0 0 0 0 0 0 0 0 0 0 0 0 0 0 0 0 0 0 0 0 0 0 0 0 0 0 0 0 0
0 0 0 0 0 0 0 0 0 0 0 0 0 0 0 0 0 0 0 0 0 0 0 0 0 0 0 0 0 0 0 0 0 0 0 0 0 0 0 0 0 0 0 0
0 0 0 0 0 0 0 0 0 0 0 0 0 0 0 0 0 0 0 0 0 0 0 0 0 0 0 0 0 0 0 0 0 0 0 0 0 0 0 0 0 0 0 0
0 0 0 0 0 0 0 0 0 0 0 6 0 0 1 0 0 0 0 0 0 0 0 0 0 0 0 0 0 0 0 0 0 0 0 0 0 0 0 0 0 0 0 0
0 0 0 0 0 0 0 0 0 15 14 0 0 0 0 1 0 0 0 0 0 0 0 0 0 0 0 0 0 0 0 0 0 0 0 0 0 0 0 0 0 0 0 0
0 0 0 0 0 0 0 0 0 0 0 0 0 0 2 2 0 0 0 0 0 0 0 0 0 0 0 0 0 0 0 0 0 0 0 0 0 0 0 0 0 0 0 0
0 0 0 0 0 0 0 0 0 0 0 0 0 0 1 0 0 0 0 0 0 0 0 0 0 0 0 0 0 0 0 0 0 0 0 0 0 0 0 0 0 0 1 0
0 0 0 0 0 0 0 0 0 0 0 0 0 1 0 0 0 0 0 0 0 0 0 0 0 0 0 0 0 0 0 0 0 0 0 0 0 0 4 0 1 0 0 0
0 0 0 0 0 0 0 0 0 0 0 2 4 1 0 0 0 0 0 0 0 0 0 0 0 0 0 0 0 0 0 0 0 0 0 0 0 0 1 1 1 0 0 0
0 0 0 0 0 0 0 0 1 0 0 0 0 0 0 0 0 0 0 0 0 0 0 0 0 0 0 0 0 0 0 0 0 0 0 0 1 0 0 0 0 0 0 0
0 0 0 0 0 0 0 0 0 0 0 1 0 0 0 0 0 0 0 0 0 0 0 0 0 0 0 0 0 0 0 0 0 0 0 0 1 1 0 0 0 0 0 0
0 0 0 0 0 0 0 0 0 0 0 0 0 1 3 0 0 0 0 0 0 0 0 0 0 1 1 0 0 0 0 0 0 0 0 0 0 0 0 0 0 0 0 0
0 0 0 0 0 0 0 0 2 2 1 3 1 0 3 0 0 0 0 0 0 0 0 0 0 0 0 0 0 0 1 0 0 0 0 1 2 0 0 1 0 1 0 0
0 0 0 0 0 0 0 0 3 7 0 1 0 0 0 0 0 0 0 0 0 1 1 0 0 0 0 0 0 1 1 1 0 0 0 1 1 0 0 1 2 1 0 0
0 0 0 0 0 0 1 1 0 6 4 0 0 0 0 0 0 0 0 0 0 0 0 0 0 0 0 0 0 1 1 0 0 0 0 1 1 1 1 1 1 1 1 1
0 0 0 0 0 0 6 14 14 0 0 0 0 0 0 0 0 0 0 0 0 0 0 0 0 0 0 0 0 2 1 1 0 0 0 1 1 1 1 0 1 0 1 1
0 0 0 0 5 6 0 0 0 0 0 0 0 0 0 0 0 0 0 0 0 0 0 0 0 0 0 0 0 0 1 1 1 0 1 0 0 0 1 1 1 1 0 0
0 0 0 0 2 0 0 0 0 0 0 0 0 0 0 0 0 0 0 0 0 0 0 0 0 0 0 0 0 0 1 0 0 0 0 1 1 0 1 1 0 0 0 0
0 0 0 0 0 1 0 0 0 0 0 0 0 0 0 0 0 0 0 0 0 0 0 0 0 0 0 0 0 0 0 1 1 1 1 1 1 1 1 1 1 1 1 0
CIN
-0 -0 -0 -0 -0 -0 -0 -0 -0 -0 -0 -0 -0 -0 -131 -175 -150 -127 -108 -214 -0 -0 -0 -0 -0 -0 -0 -0 -0 -0 -0 -0 -0 -0 -0 -0 -0 -0 -0 -0 -0 -0 -0 -0
-0 -0 -0 -0 -0 -0 -0 -0 -0 -0 -0 -0 -0 -63 -119 -145 -143 -126 -101 -0 -0 -0 -0 -0 -0 -0 -0 -0 -0 -0 -0 -0 -0 -0 -0 -0 -0 -0 -0 -0 -0 -0 -0 -0
-0 -0 -0 -0 -0 -0 -0 -0 -0 -0 -0 -0 -0 -0 -73 -148 -173 -153 -0 -0 -0 -0 -0 -0 -0 -0 -0 -0 -0 -0 -0 -0 -0 -0 -0 -0 -0 -0 -0 -0 -0 -0 -0 -0
-0 -0 -0 -0 -0 -0 -0 -0 -0 -29 -34 -25 -0 -0 -61 -98 -130 -0 -0 -0 -0 -0 -0 -0 -0 -0 -0 -0 -0 -0 -0 -0 -0 -0 -0 -0 -0 -0 -0 -0 -0 -0 -0 -0
-0 -0 -0 -0 -0 -0 -0 -0 -0 -0 -0 -0 -0 -0 -0 -0 -0 -0 -0 -0 -0 -0 -0 -0 -0 -0 -0 -0 -0 -0 -0 -0 -0 -0 -0 -0 -0 -0 -0 -0 -0 -0 -0 -0
-0 -0 -0 -0 -0 -0 -0 -0 -0 -0 -0 -0 -0 -0 -0 -0 -0 -0 -0 -0 -0 -0 -0 -0 -0 -0 -0 -0 -0 -0 -0 -0 -0 -0 -0 -0 -0 -0 -0 -0 -0 -0 -0 -0
-0 -0 -0 -0 -0 -0 -0 -0 -0 -0 -0 -0 -0 -0 -0 -0 -0 -0 -0 -0 -0 -0 -0 -0 -0 -0 -0 -0 -0 -0 -0 -0 -0 -0 -0 -0 -0 -0 -0 -0 -0 -0 -0 -0
-0 -0 -0 -0 -0 -0 -0 -0 -0 -0 -0 -0 -0 -0 -0 -0 -0 -0 -0 -0 -0 -0 -0 -0 -0 -0 -0 -0 -0 -0 -0 -0 -0 -0 -0 -0 -0 -0 -0 -0 -0 -0 -0 -0
-0 -0 -0 -0 -0 -0 -0 -0 -0 -0 -0 -1 -0 -0 -0 -0 -0 -0 -0 -0 -0 -0 -0 -0 -0 -0 -0 -0 -0 -0 -0 -0 -0 -0 -0 -0 -0 -0 -0 -0 -0 -0 -0 -0
-0 -0 -0 -0 -0 -0 -0 -0 -0 -0 -0 -0 -0 -0 -0 -0 -0 -0 -0 -0 -0 -0 -0 -0 -0 -0 -0 -0 -0 -0 -0 -0 -0 -0 -0 -0 -0 -0 -0 -0 -0 -0 -0 -0
-0 -0 -0 -0 -0 -0 -0 -0 -0 -0 -0 -13 -0 -0 -0 -0 -0 -0 -0 -0 -0 -0 -0 -0 -0 -0 -0 -0 -0 -0 -0 -0 -0 -0 -0 -0 -0 -0 -0 -0 -0 -0 -0 -0
-0 -0 -0 -0 -0 -0 -0 -0 -0 -32 -19 -0 -0 -0 -0 -2 -0 -0 -0 -0 -0 -0 -0 -0 -0 -0 -0 -0 -0 -0 -0 -0 -0 -0 -0 -0 -0 -0 -0 -0 -0 -0 -0 -0
-0 -0 -0 -0 -0 -0 -0 -0 -0 -0 -0 -0 -0 -0 -0 -1 -0 -0 -0 -0 -0 -0 -0 -0 -0 -0 -0 -0 -0 -0 -0 -0 -0 -0 -0 -0 -0 -0 -0 -2 -0 -0 -2 -0
-0 -0 -0 -0 -0 -0 -0 -0 -0 -0 -0 -1 -0 -1 -0 -0 -0 -0 -0 -0 -0 -0 -0 -0 -0 -0 -0 -0 -0 -0 -0 -0 -0 -0 -0 -0 -0 -0 -0 -0 -0 -0 -13 -0
-0 -0 -0 -0 -0 -0 -0 -0 -0 -0 -0 -0 -0 -0 -0 -0 -0 -0 -0 -0 -0 -0 -0 -0 -0 -0 -0 -0 -0 -0 -0 -0 -0 -0 -0 -0 -0 -0 -15 -9 -16 -0 -0 -3
-0 -0 -0 -0 -0 -0 -0 -0 -0 -0 -0 -0 -7 -5 -0 -0 -0 -0 -0 -0 -0 -0 -0 -0 -0 -0 -0 -0 -0 -0 -0 -0 -0 -0 -0 -0 -0 -2 -18 -22 -19 -0 -0 -1
-0 -0 -0 -0 -0 -0 -0 -0 -14 -0 -0 -0 -0 -4 -0 -0 -0 -0 -0 -0 -0 -0 -0 -0 -0 -0 -0 -0 -0 -0 -0 -0 -0 -0 -0 -1 -5 -6 -8 -0 -0 -0 -0 -0
-0 -0 -0 -0 -0 -0 -0 -0 -0 -0 -0 -14 -0 -0 -0 -19 -0 -0 -0 -0 -0 -0 -0 -0 -0 -0 -0 -0 -0 -0 -0 -0 -0 -0 -0 -3 -9 -10 -0 -0 -0 -1 -0 -0
-0 -0 -0 -0 -0 -0 -0 -0 -0 -0 -0 -0 -0 -19 -27 -0 -0 -0 -0 -0 -0 -0 -0 -0 -0 -0 -0 -0 -0 -0 -0 -0 -0 -0 -0 -0 -13 -11 -2 -7 -0 -0 -0 -0
-0 -0 -0 -0 -0 -0 -0 -0 -14 -11 -6 -7 -1 -0 -12 -0 -0 -0 -0 -0 -0 -0 -0 -0 -0 -0 -0 -0 -0 -0 -0 -0 -0 -0 -0 -0 -0 -0 -0 -0 -0 -0 -0 -0
-0 -0 -0 -0 -0 -0 -0 -8 -18 -1 -0 -10 -2 -0 -0 -0 -0 -0 -0 -0 -0 -0 -0 -0 -0 -0 -1 -0 -0 -0 -0 -0 -0 -0 -0 -0 -0 -1 -0 -0 -0 -0 -0 -0
-0 -0 -0 -0 -0 -0 -6 -6 -1 -6 -8 -0 -0 -0 -0 -0 -0 -0 -0 -0 -0 -0 -0 -0 -0 -0 -0 -0 -0 -0 -0 -0 -0 -0 -0 -0 -0 -0 -0 -0 -0 -0 -0 -0
-0 -0 -0 -0 -0 -0 -30 -9 -25 -1 -0 -0 -0 -0 -0 -0 -0 -0 -0 -0 -0 -0 -0 -0 -0 -0 -0 -0 -0 -0 -0 -0 -0 -0 -0 -0 -0 -0 -0 -0 -0 -0 -0 -0
-0 -0 -0 -0 -17 -25 -3 -0 -0 -0 -0 -0 -0 -0 -0 -0 -0 -0 -0 -0 -0 -0 -0 -0 -0 -0 -0 -0 -0 -0 -0 -0 -0 -0 -0 -0 -0 -0 -0 -0 -0 -0 -0 -0
-0 -0 -0 -0 -14 -15 -0 -0 -0 -0 -0 -0 -0 -0 -0 -0 -0 -0 -0 -0 -0 -0 -0 -0 -0 -0 -0 -0 -0 -0 -0 -0 -0 -0 -0 -0 -0 -0 -0 -0 -0 -1 -1 -0
-0 -0 -0 -0 -0 -29 -0 -0 -0 -0 -0 -0 -0 -0 -0 -0 -0 -0 -0 -0 -0 -0 -0 -0 -0 -0 -0 -0 -0 -3 -0 -0 -0 -0 -0 -0 -0 -0 -0 -0 -0 -0 -0 -0
Wind_Speed
18 21 20 20 17 17 20 23 22 19 19 17 16 14 9 4 4 9 10 7 2 3 6 7 10 11 13 16 16 18 18 21 20 21 22 24 25 25 27 29 29 29 29 29
20 22 19 15 16 18 20 22 21 23 19 12 16 15 11 7 7 5 5 4 3 4 4 9 11 12 13 14 16 18 20 21 22 23 23 24 24 24 26 28 30 30 30 30
16 12 18 17 19 18 17 14 19 18 14 19 17 19 14 12 11 11 11 5 3 2 4 7 9 11 13 15 16 18 20 21 23 25 25 25 24 25 27 29 30 30 30 29
14 16 20 17 16 17 17 17 17 12 15 22 12 24 13 12 13 12 7 6 5 2 4 5 7 10 12 15 17 18 20 23 25 26 28 29 29 28 26 27 27 28 28 28
12 22 18 14 13 16 18 18 16 15 16 19 17 23 20 17 15 13 13 6 6 4 2 3 6 9 13 15 18 19 22 24 26 28 30 30 29 26 25 27 30 30 30 30
8 15 15 13 15 16 15 17 19 19 19 22 20 23 26 22 19 11 10 11 13 12 3 6 9 10 14 16 19 20 22 24 26 29 31 31 29 28 29 29 31 31 30 31
16 17 18 15 16 16 15 18 23 23 20 23 22 22 24 26 21 6 5 5 9 7 8 9 12 13 16 18 19 20 22 25 27 29 31 31 30 29 29 30 31 32 33 33
17 20 18 18 16 17 14 15 18 26 26 28 23 24 23 18 15 9 4 6 10 10 15 10 11 16 17 18 19 20 22 26 28 29 30 30 29 29 29 29 30 31 32 33
18 18 18 20 19 18 18 18 20 23 25 27 26 26 22 15 12 9 7 8 8 3 9 13 15 18 18 18 20 19 23 26 28 30 31 30 30 30 31 31 30 30 31 32
17 22 21 21 21 20 20 20 21 24 30 31 27 26 25 11 8 8 7 6 6 11 14 16 19 18 18 18 19 20 24 28 29 30 31 31 32 31 32 32 31 30 31 32
20 19 21 21 23 22 23 22 22 20 22 26 28 23 24 3 5 7 7 9 10 13 14 16 18 19 18 18 19 22 25 29 31 31 32 32 32 32 32 32 32 31 31 34
21 19 21 18 17 22 19 18 19 18 21 17 24 17 22 8 7 8 9 9 9 14 16 18 20 20 19 19 20 23 26 30 31 33 33 33 33 33 33 34 32 33 35 35
18 18 18 17 16 17 19 18 17 17 15 13 13 16 13 12 10 12 11 11 13 15 17 21 22 23 21 20 21 24 26 29 32 35 36 35 34 32 34 32 33 35 35 36
17 18 16 17 17 16 18 18 15 16 18 17 13 15 17 16 14 13 14 14 15 16 19 22 23 23 22 20 21 23 25 28 32 36 37 37 32 32 31 32 34 35 36 36
19 20 21 21 22 23 22 22 20 16 15 17 18 19 17 16 15 14 14 15 17 20 22 25 24 23 23 21 24 24 25 28 33 36 37 35 32 31 31 32 33 35 37 35
17 18 20 21 23 25 25 25 24 24 25 23 20 18 16 15 16 16 20 19 19 22 25 26 24 26 28 28 28 25 25 30 33 35 34 34 32 32 33 33 33 35 36 36
15 16 17 17 15 16 20 19 20 21 21 19 17 15 14 15 17 18 19 20 22 23 23 24 26 28 29 31 30 26 26 30 33 34 35 34 31 32 33 35 33 34 38 35
14 16 17 17 15 17 15 14 17 20 20 19 18 15 14 15 19 23 23 21 23 23 24 25 27 29 31 32 30 26 27 30 33 36 35 33 32 31 33 35 38 33 36 33
14 15 16 16 15 13 12 12 12 13 17 18 16 14 14 15 19 24 24 23 23 25 26 27 28 30 31 32 31 29 27 30 33 35 34 33 31 30 32 33 34 34 33 30
15 15 15 14 14 14 12 13 10 14 15 17 17 15 14 16 19 20 22 23 24 25 27 28 29 29 31 33 30 28 28 29 31 35 33 31 31 29 31 28 24 26 25 27
13 15 13 11 12 12 11 13 14 15 18 17 16 17 17 19 20 18 21 24 25 26 27 26 28 30 32 32 31 30 29 30 29 33 34 33 28 30 29 22 20 21 23 23
11 13 12 12 13 15 14 16 16 15 17 18 19 19 20 20 21 20 22 24 24 25 26 27 28 29 31 32 31 31 30 26 29 30 33 35 35 34 32 25 22 22 24 23
11 12 13 12 14 16 19 18 16 16 17 18 20 19 19 19 21 21 22 24 25 26 26 27 28 29 30 31 32 30 30 26 28 27 31 35 35 34 36 26 26 25 23 24
15 13 14 15 17 17 18 20 20 20 20 20 20 21 21 21 22 22 23 25 26 27 28 27 27 29 31 32 31 30 28 27 29 26 28 29 20 29 29 25 26 26 23 24
14 12 12 15 15 19 20 19 19 21 21 22 23 23 23 23 23 23 24 25 26 27 28 27 27 28 30 32 23 17 23 30 26 11 4 14 8 13 20 22 24 26 24 22
12 12 11 11 11 16 16 18 20 22 23 23 24 24 25 25 25 24 25 25 27 28 28 27 26 21 10 12 3 7 10 7 3 11 13 13 15 18 24 27 28 28 27 26
Wind_Direction
316 310 305 304 298 302 311 309 310 315 319 308 299 304 295 269 262 294 300 308 349 350 9 42 14 11 6 0 9 10 9 7 8 1 355 352 350 349 346 343 343 342 340 337
311 307 314 324 320 309 308 310 311 316 323 317 316 304 305 288 244 247 259 275 269 342 10 4 3 6 13 18 16 12 9 6 5 2 356 353 351 351 348 345 341 340 339 336
318 320 326 325 320 322 319 317 318 317 326 328 326 312 305 306 302 290 294 239 227 234 339 353 10 20 18 17 16 12 9 7 4 359 355 353 352 350 346 345 345 344 342 340
331 323 327 324 321 328 327 329 326 320 319 318 325 312 308 293 297 300 271 249 229 264 329 3 20 13 16 15 14 10 7 3 359 356 352 348 347 346 349 349 349 349 348 346
344 321 335 341 338 333 333 336 334 329 324 326 328 319 320 318 302 301 293 266 243 203 138 45 21 21 13 13 8 5 1 1 357 352 351 348 348 349 350 348 345 345 345 345
359 345 348 345 339 335 343 339 337 333 328 315 316 314 320 323 315 312 333 340 334 307 57 6 41 36 10 6 2 1 0 359 354 351 350 349 348 347 345 345 344 344 345 344
339 342 340 341 336 339 338 336 326 322 319 317 331 325 324 329 325 310 321 344 326 329 339 40 358 2 7 1 360 0 360 357 354 352 352 351 350 348 346 344 345 344 342 342
339 333 349 351 343 336 336 331 324 321 321 320 326 322 326 338 348 356 12 339 332 320 312 9 10 4 5 3 2 1 360 355 353 353 353 354 354 351 349 348 345 343 342 340
344 344 354 350 348 344 337 329 328 320 321 316 316 319 325 334 332 333 325 322 309 327 337 350 8 6 6 3 1 3 358 354 353 352 351 351 351 350 349 347 345 344 342 340
352 338 346 346 346 348 343 340 328 327 319 314 318 318 317 325 341 339 334 335 336 335 333 359 356 3 7 4 3 1 356 353 353 351 350 349 348 348 347 347 346 345 343 342
346 343 342 351 350 343 337 338 339 336 330 321 321 326 341 337 17 28 3 338 329 329 352 360 0 1 4 4 2 358 355 351 350 351 350 351 349 349 349 349 347 348 347 343
345 350 347 358 12 7 11 3 356 345 338 338 335 328 358 16 16 22 359 5 5 350 357 1 0 0 1 1 359 356 353 350 350 349 350 349 350 350 352 352 354 352 348 346
358 0 357 5 10 29 27 33 32 26 26 6 357 13 345 350 2 9 17 8 1 3 357 350 353 354 357 356 357 355 354 353 352 351 350 351 352 356 356 358 356 355 353 350
23 22 28 31 43 55 41 44 58 62 54 63 76 83 354 339 351 5 11 13 6 3 356 353 352 353 355 359 0 360 358 355 352 352 352 354 358 359 1 1 358 358 359 355
44 41 50 53 47 44 49 50 57 73 83 71 81 64 55 31 12 8 8 5 4 355 352 348 352 356 357 358 355 355 355 354 352 351 354 358 0 2 2 3 4 4 3 2
48 53 54 45 50 48 48 53 65 65 67 68 66 54 57 42 39 15 357 357 358 352 345 348 354 353 350 348 348 353 356 352 352 352 357 358 3 3 4 6 7 8 8 7
46 70 53 46 74 68 50 69 72 69 65 60 54 60 51 30 16 5 0 354 349 352 354 354 352 350 348 346 348 354 355 353 353 355 356 359 4 4 7 8 11 12 9 10
51 54 46 48 62 41 76 85 74 56 46 44 45 52 42 28 9 355 354 357 356 358 356 353 350 348 346 345 348 353 353 352 352 350 353 0 4 5 10 13 12 15 12 15
44 53 46 50 51 64 75 71 68 46 28 27 30 33 30 24 14 3 1 2 0 357 355 351 349 346 345 344 345 348 350 349 351 349 354 2 6 4 8 11 15 17 17 21
21 28 46 56 42 36 54 43 47 28 10 16 18 21 17 10 357 358 1 0 359 358 356 355 354 355 354 350 352 354 353 354 354 351 357 3 7 10 8 15 19 22 24 26
27 19 43 52 42 38 41 32 30 9 7 15 15 16 16 4 5 10 6 3 1 0 360 4 3 0 359 358 357 356 355 354 2 354 356 2 16 11 13 22 23 25 26 31
36 35 39 41 30 19 27 20 7 18 18 20 21 18 20 21 16 13 11 7 10 12 10 8 7 6 7 3 1 358 357 6 354 343 354 2 7 4 16 31 30 33 34 38
24 22 35 38 27 25 25 30 35 32 27 29 31 30 25 22 17 22 27 23 19 18 18 16 13 11 7 2 357 350 342 335 340 333 346 1 2 357 18 41 40 42 46 46
355 14 23 29 23 27 34 34 37 40 43 38 30 29 30 34 42 39 33 29 25 21 20 21 21 18 12 6 359 350 350 348 0 335 339 342 327 340 38 49 48 48 53 52
12 26 34 27 43 33 35 43 50 46 42 37 38 49 51 47 46 49 46 40 34 30 27 28 28 32 28 17 341 328 343 6 356 83 57 330 68 64 59 56 53 53 57 57
30 32 41 40 60 36 47 60 57 50 46 53 58 57 58 56 56 56 52 47 39 34 37 44 51 70 101 86 28 323 323 327 69 85 79 75 74 66 61 56 55 57 57 58